Voltar ao catálogo

OPS 2439

AtivoNavegaçãoHEO
NORAD 7687·PAYLOAD·🇺🇸 United States

Lançado Mar 10, 1975 de Vandenberg Space Force Base

Loading…

Próximas Passagens (próximas 24 horas)

TLE

ObsoletoSource: Space-Track

Época: Mar 19, 1975, 13:05 UTC

1 07687U 75017  A 75078.54518288  .00000000 +00000-0 +00000-0 0  9996
2 07687 063.4531 316.4023 7394436 268.8005 014.1907 02.03892316000204

Acompanhe OPS 2439 em tempo real com AllMySat

Download on the App Store